Back to catalog

STARLINK-3602

AliveCommunicationsVLEO
NORAD 51791·PAYLOAD·🇺🇸 United States

Launched Feb 25, 2022 from Vandenberg Space Force Base

Loading…

Next Passes (next 24 hours)

TLE

FreshSource: CelesTrak SupGP

Epoch: Sep 14, 2026, 22:03 UTC

1 51791C 22017Z   26257.91923611 -.00017835  00000+0 -54106-3 0  2570
2 51791  53.1584 205.9918 0001326  94.6748 207.7541 15.33564785    19

Track STARLINK-3602 in real time with AllMySat

Download on the App Store